When you browse on this site, cookies collect data to enhance your experience and personalize the content and advertising you see.
Visit our Privacy Policy to learn more. By continuing to use the site, you agree to this use of cookies and data.
  • In Sweden
  • List of Countries
  • For 7 days
  • Water Temperature
  • Satellite Maps
  • Weather Map
  • Weather Widgets
  • user-avatar
    Login

    Hourly Weather Knighton

    Today, 19 January, Saturday

    Time Temperature Precipitation Wind Pressure Humidity
    00:00 +1°C° 0.1 mm 5 mps 725 mmHg 96%
    01:00 +1°C° 0.1 mm 5 mps 725 mmHg 96%
    02:00 +1°C° 0.1 mm 4 mps 724 mmHg 97%
    03:00 +1°C° 0.1 mm 4 mps 724 mmHg 97%
    04:00 +1°C° 0 mm 4 mps 724 mmHg 97%
    05:00 +1°C° 0 mm 4 mps 724 mmHg 97%
    06:00 +1°C° 0 mm 4 mps 723 mmHg 97%
    07:00 +1°C° 0.3 mm 4 mps 723 mmHg 97%
    08:00 +1°C° 0.3 mm 4 mps 723 mmHg 98%
    09:00 +1°C° 0.3 mm 4 mps 724 mmHg 98%
    10:00 +1°C° 1.2 mm 4 mps 724 mmHg 98%
    11:00 +2°C° 1.2 mm 3 mps 724 mmHg 97%
    12:00 +2°C° 1.2 mm 3 mps 724 mmHg 97%
    13:00 +3°C° 0.9 mm 3 mps 724 mmHg 97%
    14:00 +3°C° 0.9 mm 3 mps 724 mmHg 97%
    15:00 +4°C° 0.9 mm 2 mps 723 mmHg 97%
    16:00 +4°C° 0.2 mm 2 mps 724 mmHg 98%
    17:00 +4°C° 0.2 mm 2 mps 724 mmHg 98%
    18:00 +4°C° 0.2 mm 2 mps 724 mmHg 98%
    19:00 +3°C° 0.1 mm 2 mps 725 mmHg 98%
    20:00 +3°C° 0.1 mm 2 mps 725 mmHg 98%
    21:00 +3°C° 0.1 mm 2 mps 726 mmHg 98%
    22:00 +3°C° 0.1 mm 2 mps 726 mmHg 98%
    23:00 +3°C° 0.1 mm 2 mps 727 mmHg 98%

    Tomorrow, 20 January, Sunday

    Time Temperature Precipitation Wind Pressure Humidity
    00:00 +3°C° 0.1 mm 2 mps 727 mmHg 98%
    01:00 +2°C° 0 mm 2 mps 727 mmHg 98%
    02:00 +3°C° 0 mm 1 mps 728 mmHg 98%
    03:00 +3°C° 0 mm 1 mps 728 mmHg 98%
    04:00 +3°C° 0 mm 1 mps 729 mmHg 98%
    05:00 +3°C° 0 mm 1 mps 729 mmHg 98%
    06:00 +2°C° 0 mm 2 mps 730 mmHg 97%
    07:00 +2°C° 0 mm 2 mps 731 mmHg 97%
    08:00 +2°C° 0 mm 2 mps 731 mmHg 97%
    09:00 +2°C° 0 mm 2 mps 732 mmHg 96%
    10:00 +2°C° 0 mm 2 mps 733 mmHg 94%
    11:00 +3°C° 0 mm 2 mps 733 mmHg 92%
    12:00 +3°C° 0 mm 2 mps 734 mmHg 90%
    13:00 +3°C° 0 mm 2 mps 734 mmHg 89%
    14:00 +2°C° 0 mm 3 mps 734 mmHg 87%
    15:00 +3°C° 0 mm 3 mps 735 mmHg 86%
    16:00 +3°C° 0 mm 2 mps 735 mmHg 88%
    17:00 +2°C° 0 mm 2 mps 736 mmHg 90%
    18:00 +2°C° 0 mm 1 mps 736 mmHg 92%
    19:00 +2°C° 0 mm 1 mps 737 mmHg 93%
    20:00 +2°C° 0 mm 1 mps 737 mmHg 93%
    21:00 +3°C° 0 mm 1 mps 738 mmHg 93%
    22:00 +2°C° 0 mm 2 mps 738 mmHg 94%
    23:00 +2°C° 0 mm 2 mps 738 mmHg 94%

    Day after tomorrow, 21 January, Monday

    Time Temperature Precipitation Wind Pressure Humidity
    00:00 +3°C° 0 mm 2 mps 739 mmHg 94%
    01:00 +2°C° 0 mm 2 mps 739 mmHg 94%
    02:00 +2°C° 0 mm 2 mps 739 mmHg 94%
    03:00 +1°C° 0 mm 2 mps 739 mmHg 94%
    04:00 -1°C° 0 mm 2 mps 739 mmHg 94%
    05:00 +1°C° 0 mm 1 mps 738 mmHg 94%
    06:00 0°C° 0 mm 1 mps 738 mmHg 94%
    07:00 +1°C° 0 mm 1 mps 738 mmHg 93%
    08:00 +1°C° 0 mm 1 mps 738 mmHg 92%
    09:00 +1°C° 0 mm 1 mps 738 mmHg 91%
    10:00 +1°C° 0 mm 2 mps 737 mmHg 87%
    11:00 +1°C° 0 mm 3 mps 737 mmHg 83%
    12:00 +2°C° 0 mm 3 mps 736 mmHg 78%
    13:00 +1°C° 0 mm 4 mps 735 mmHg 79%
    14:00 +1°C° 0 mm 5 mps 734 mmHg 79%
    15:00 +1°C° 0 mm 6 mps 733 mmHg 80%
    16:00 +1°C° 0 mm 6 mps 732 mmHg 82%
    17:00 +1°C° 0 mm 6 mps 730 mmHg 83%
    18:00 0°C° 0 mm 7 mps 729 mmHg 85%
    19:00 0°C° 0.5 mm 7 mps 728 mmHg 86%
    20:00 +1°C° 0.5 mm 8 mps 726 mmHg 87%
    21:00 +1°C° 0.5 mm 9 mps 725 mmHg 88%
    22:00 0°C° 1.6 mm 7 mps 725 mmHg 86%
    23:00 -1°C° 1.6 mm 6 mps 724 mmHg 84%

    22 January, Tuesday

    Time Temperature Precipitation Wind Pressure Humidity
    00:00 -1°C° 1.6 mm 5 mps 723 mmHg 82%
    01:00 -2°C° 0 mm 5 mps 723 mmHg 82%
    02:00 -2°C° 0 mm 5 mps 723 mmHg 83%
    03:00 -4°C° 0 mm 5 mps 722 mmHg 83%
    04:00 -4°C° 0 mm 5 mps 722 mmHg 83%
    05:00 -3°C° 0 mm 6 mps 721 mmHg 83%
    06:00 -3°C° 0 mm 6 mps 721 mmHg 82%
    07:00 -2°C° 0.1 mm 5 mps 721 mmHg 82%
    08:00 -4°C° 0.1 mm 5 mps 721 mmHg 83%
    09:00 -4°C° 0.1 mm 5 mps 720 mmHg 83%
    10:00 -3°C° 0.1 mm 6 mps 720 mmHg 79%
    11:00 -3°C° 0.1 mm 7 mps 720 mmHg 75%
    12:00 -2°C° 0.1 mm 8 mps 720 mmHg 72%
    13:00 -3°C° 0.1 mm 7 mps 720 mmHg 71%
    14:00 -3°C° 0.1 mm 7 mps 720 mmHg 71%
    15:00 -3°C° 0.1 mm 7 mps 720 mmHg 71%
    16:00 -4°C° 0 mm 6 mps 720 mmHg 74%
    17:00 -4°C° 0 mm 6 mps 720 mmHg 76%
    18:00 -5°C° 0 mm 5 mps 720 mmHg 78%
    19:00 -5°C° 0 mm 5 mps 720 mmHg 78%
    20:00 -5°C° 0 mm 5 mps 720 mmHg 78%
    21:00 -5°C° 0 mm 5 mps 720 mmHg 78%
    22:00 -5°C° 0 mm 5 mps 720 mmHg 78%
    23:00 -5°C° 0 mm 5 mps 720 mmHg 79%

    23 January, Wednesday

    Time Temperature Precipitation Wind Pressure Humidity
    00:00 -5°C° 0 mm 5 mps 720 mmHg 80%
    01:00 -5°C° 0 mm 5 mps 720 mmHg 80%
    02:00 -5°C° 0 mm 5 mps 719 mmHg 81%
    03:00 -4°C° 0 mm 4 mps 719 mmHg 82%
    04:00 -4°C° 0 mm 4 mps 719 mmHg 82%
    05:00 -5°C° 0 mm 5 mps 719 mmHg 82%
    06:00 -4°C° 0 mm 5 mps 719 mmHg 83%
    07:00 -4°C° 0 mm 4 mps 720 mmHg 83%
    08:00 -4°C° 0 mm 4 mps 720 mmHg 84%
    09:00 -4°C° 0 mm 4 mps 720 mmHg 85%
    10:00 -3°C° 0 mm 4 mps 721 mmHg 80%
    11:00 -1°C° 0 mm 5 mps 721 mmHg 75%
    12:00 0°C° 0 mm 5 mps 722 mmHg 70%
    13:00 0°C° 0 mm 5 mps 722 mmHg 71%
    14:00 0°C° 0 mm 5 mps 722 mmHg 72%
    15:00 0°C° 0 mm 4 mps 722 mmHg 73%
    16:00 -1°C° 0 mm 5 mps 722 mmHg 75%
    17:00 -2°C° 0 mm 5 mps 723 mmHg 78%
    18:00 -4°C° 0 mm 5 mps 723 mmHg 81%
    19:00 -4°C° 0 mm 5 mps 723 mmHg 82%
    20:00 -2°C° 0 mm 5 mps 723 mmHg 84%
    21:00 -3°C° 0 mm 6 mps 724 mmHg 85%
    22:00 -2°C° 0 mm 5 mps 723 mmHg 86%
    23:00 -2°C° 0 mm 5 mps 723 mmHg 86%

    24 January, Thursday

    Time Temperature Precipitation Wind Pressure Humidity
    00:00 -4°C° 0 mm 5 mps 723 mmHg 86%
    01:00 -3°C° 0.1 mm 6 mps 724 mmHg 85%
    02:00 -2°C° 0.1 mm 7 mps 724 mmHg 84%
    03:00 -2°C° 0.1 mm 8 mps 724 mmHg 83%
    04:00 -2°C° 0 mm 8 mps 725 mmHg 86%
    05:00 -2°C° 0 mm 7 mps 726 mmHg 88%
    06:00 -2°C° 0 mm 7 mps 727 mmHg 91%
    07:00 -2°C° 0 mm 5 mps 728 mmHg 92%
    08:00 -3°C° 0 mm 4 mps 729 mmHg 94%
    09:00 -4°C° 0 mm 3 mps 730 mmHg 96%
    10:00 -3°C° 0 mm 4 mps 731 mmHg 91%
    11:00 -1°C° 0 mm 4 mps 731 mmHg 86%
    12:00 0°C° 0 mm 4 mps 732 mmHg 82%
    13:00 0°C° 0 mm 4 mps 732 mmHg 82%
    14:00 0°C° 0 mm 4 mps 732 mmHg 82%
    15:00 0°C° 0 mm 4 mps 732 mmHg 82%
    16:00 -1°C° 0 mm 4 mps 732 mmHg 86%
    17:00 -1°C° 0 mm 3 mps 732 mmHg 90%
    18:00 -2°C° 0 mm 3 mps 732 mmHg 94%
    19:00 -2°C° 0 mm 3 mps 732 mmHg 94%
    20:00 -4°C° 0 mm 4 mps 733 mmHg 94%
    21:00 -4°C° 0 mm 4 mps 733 mmHg 94%
    22:00 -4°C° 0 mm 4 mps 733 mmHg 93%
    23:00 -5°C° 0 mm 4 mps 733 mmHg 92%
    Show more